Flag for Germany Weather past 2 weeks in Velbert, North Rhine-Westphalia, Germany

Now
66 °F

Drizzle. Overcast.


Feels Like: 66 °F
Forecast: 62 / 75 °F
Wind: 5 mph from East

Location: Essen

Current Time: Sep 18, 2014 at 6:20:38 PM

Latest Report: Sep 18, 2014 at 6:00 PM


Visibility: 13 mi

Pressure: 29.84 "Hg

Humidity: 91%

Dew point: 64 °F

Location of VelbertLocation

Historic Weather in Velbert — Graph

°F

Velbert temperature yesterday

Maximum temperature yesterday: 77 °F (at 4:00 PM)
Minimum temperature yesterday: 59 °F (at 4:00 AM)
Average temperature yesterday: 67 °F

Past Weeks' High & Low Weather Summary

 TemperatureHumidityPressure
High77 °F (Sep 17, 4:00 PM)100% (Sep 14, 6:00 AM)30.25 "Hg (Sep 14, 6:00 AM)
Low48 °F (Sep 12, 6:00 AM)49% (Sep 17, 6:00 PM)29.84 "Hg (Sep 18, 4:00 PM)
Average62 °F79%30.05 "Hg
* Reported Sep 3 5:00 PM — Sep 18 5:00 PM, Velbert, Weather by CustomWeather, © 2014

Note: Actual official high and low records may vary slightly from our data, if they occured in-between our weather recording intervals... More about our weather records

Advertising

Velbert weather history for previous 24 hours

 ConditionsComfort  
Time TempWeatherWind HumidityBarometerVisibility
5:00 PM
Sep 18
67 °FLight rain. Low clouds.2 mph88%29.85 "Hg4 mi
4:00 PM70 °FLight rain. Overcast.2 mph78%29.84 "Hg16 mi
3:00 PM69 °FLight rain. Overcast.2 mph78%29.85 "Hg16 mi
2:00 PM68 °FOvercast.2 mph81%29.86 "Hg16 mi
1:00 PM67 °FLight rain. Overcast.2 mph81%29.86 "Hg12 mi
12:00 PM66 °FLight rain. Low clouds.2 mph85%29.86 "Hg9 mi
11:00 AM66 °FOvercast.2 mph78%29.85 "Hg15 mi
10:00 AM66 °FOvercast.1 mph79%29.85 "Hg15 mi
9:00 AM66 °FSunny.1 mph76%29.85 "Hg14 mi
8:00 AM61 °FPartly sunny.2 mph84%29.85 "Hg11 mi
7:00 AM60 °FPassing clouds.2 mph86%29.85 "Hg12 mi
6:00 AM61 °FClear.2 mph85%29.85 "Hg14 mi
5:00 AM61 °FClear.2 mph85%29.85 "Hg12 mi
4:00 AM62 °FClear.3 mph85%29.85 "Hg14 mi
3:00 AM60 °FClear.2 mph86%29.85 "Hg12 mi
2:00 AM61 °FClear.2 mph85%29.87 "Hg13 mi
1:00 AM62 °FClear.2 mph83%29.87 "Hg14 mi
12:00 AM63 °FClear.2 mph81%29.87 "Hg16 mi
11:00 PM
Sep 17
63 °FClear.2 mph79%29.87 "Hg17 mi
10:00 PM65 °FClear.2 mph75%29.88 "Hg19 mi
9:00 PM68 °FClear.2 mph66%29.87 "Hg22 mi
8:00 PM69 °FClear.1 mph66%29.86 "Hg22 mi
7:00 PM73 °FSunny.2 mph57%29.85 "Hg25 mi
6:00 PM76 °FSunny.3 mph49%29.85 "Hg28 mi
Weather by CustomWeather, © 2014

See weather overviewHow to use our weather pages